Lid_Strength_Index
5 5 5 4 4 4 4 4 3 4 5 5 5 5 5 4 4 7 6 4 5 7 6 6 5 7 7 8 10 8 8 9 9 12 14 13 14 12 13 12 14 14 14 15 14 15 16 8 8 13 9 7 7 7
5 5 5 4 4 4 4 4 4 5 6 6 5 5 5 4 3 3 6 2 3 6 6 5 6 5 5 6 7 8 8 9 8 12 12 12 13 12 12 16 10 15 12 14 13 14 8 7 8 6 6 7 7 7
6 6 5 5 4 4 4 4 4 5 6 5 5 5 4 4 3 3 5 4 4 7 7 8 8 5 4 4 4 8 8 7 8 7 10 11 13 11 14 13 11 9 9 11 11 9 8 7 6 5 5 6 5 5
6 6 5 5 5 5 5 4 5 6 6 5 5 4 4 3 2 2 4 3 5 6 9 8 5 6 3 2 3 5 6 6 6 7 10 14 13 9 12 11 11 10 9 11 11 9 8 7 7 6 5 5 5 4
6 6 6 5 5 5 4 5 6 6 5 5 5 4 4 2 2 3 4 3 5 6 9 8 7 6 4 3 4 4 5 7 8 10 11 12 8 10 10 11 11 9 10 13 12 10 10 9 7 6 6 6 5 5
6 6 6 5 5 4 5 5 5 5 5 5 4 4 2 2 3 4 6 4 5 5 7 10 8 7 5 4 4 5 5 6 7 10 11 10 9 10 12 16 10 9 8 9 11 8 9 8 7 4 5 6 5 5
6 6 5 5 4 5 5 5 5 5 5 4 4 3 2 2 4 5 6 5 4 5 7 10 10 8 4 5 6 6 5 6 6 8 10 10 9 10 11 16 10 9 7 7 6 7 8 6 7 5 4 5 4 4
6 5 5 4 5 5 5 5 4 4 4 4 3 2 3 3 4 5 4 3 4 6 6 10 9 9 7 9 9 6 8 7 7 8 7 9 10 9 12 11 9 7 8 7 5 4 5 4 5 5 4 4 5 5
5 5 4 5 5 4 5 4 4 4 4 2 3 3 5 5 6 5 1 2 4 5 9 9 11 11 8 9 8 7 7 10 6 8 8 8 10 12 11 9 9 9 10 8 6 5 4 5 5 5 5 4 6 5
4 4 4 4 4 4 4 4 3 3 3 3 5 6 8 6 2 2 4 7 7 7 7 10 8 10 9 10 9 8 7 10 12 9 7 9 10 9 9 10 10 9 8 6 7 7 6 6 6 6 5 4 4 5
4 4 4 4 4 4 4 3 3 3 4 6 7 6 3 1 5 5 7 8 8 11 8 8 8 9 6 8 10 8 10 10 13 10 11 11 13 10 9 9 9 9 8 7 6 6 5 5 5 5 4 4 4 4
4 4 4 4 4 3 2 3 3 4 5 3 3 4 5 6 6 9 10 9 9 10 8 9 8 7 7 5 8 8 10 10 13 8 11 13 11 9 9 8 8 9 7 6 6 6 5 5 5 4 4 4 4 4
4 4 3 2 2 2 2 3 2 3 3 3 4 5 7 7 11 12 14 12 12 8 7 7 9 8 7 6 8 9 12 12 8 11 13 12 10 7 8 8 8 8 7 6 6 5 5 5 4 4 4 4 4 4
4 3 2 2 2 2 2 2 2 3 3 6 7 11 10 11 10 10 10 10 8 7 7 7 8 8 7 9 9 12 10 9 13 15 14 11 10 8 8 7 8 7 7 6 6 5 5 5 5 5 4 4 4 5
4 3 3 2 2 2 2 2 2 4 3 7 7 12 10 7 7 7 6 7 6 5 6 7 7 7 9 10 10 10 12 14 13 14 10 10 9 8 8 7 7 7 7 6 6 6 5 4 5 5 4 4 4 5
3 3 3 2 2 2 2 3 4 3 3 6 6 9 7 8 8 7 7 7 5 6 6 6 9 10 11 11 12 13 13 14 12 9 8 7 8 8 7 6 5 5 6 6 6 5 5 5 5 5 4 4 5 5
3 3 2 3 3 3 4 5 4 4 6 7 8 6 6 7 8 7 6 6 5 6 9 9 11 12 9 12 12 10 12 10 8 7 6 7 7 7 6 6 5 5 6 6 7 7 6 5 5 6 6 5 5 5
3 3 2 3 4 4 4 5 5 6 8 7 9 8 7 7 7 7 6 5 6 7 7 9 8 12 12 13 12 9 7 6 5 6 6 5 5 4 4 6 6 5 7 7 7 7 8 7 7 6 7 6 6 6
3 3 3 3 3 4 5 5 4 8 7 7 7 6 6 7 6 6 5 5 4 4 7 8 11 12 11 8 8 7 7 7 7 6 6 5 5 5 5 5 5 6 6 7 8 8 8 7 8 7 7 7 8 8
3 3 3 2 2 3 5 5 4 6 8 6 5 6 6 6 5 6 6 5 5 6 8 9 10 9 8 7 6 6 6 6 6 7 7 5 4 4 5 5 6 6 6 6 6 6 7 8 7 7 6 7 8 9
3 3 2 2 2 3 4 6 7 6 6 7 6 6 6 5 6 6 7 7 8 9 9 8 7 7 6 5 5 6 6 6 6 7 6 7 6 6 6 6 6 5 6 5 6 6 6 8 8 7 7 7 7 7
3 2 3 2 4 4 5 4 6 5 6 7 7 6 7 8 7 7 6 7 8 8 7 7 7 6 6 5 4 4 5 5 7 5 5 5 6 6 6 6 6 5 5 6 5 6 7 7 6 6 7 7 7 7
3 3 3 3 6 7 8 4 7 7 8 8 7 8 8 8 7 5 8 7 7 5 5 5 5 5 5 5 4 5 5 6 6 6 6 6 6 6 6 6 6 6 6 6 5 5 5 5 5 5 5 4 6 6
3 3 6 6 6 9 6 8 6 7 7 8 9 10 9 8 6 8 10 8 7 5 6 6 5 5 5 5 6 5 4 4 5 5 5 6 6 6 6 6 5 5 5 6 5 5 5 4 4 4 4 5 5 6
7 8 7 11 6 8 8 8 8 8 10 9 9 9 9 7 9 10 10 9 7 6 5 4 5 4 6 5 6 6 5 5 6 6 6 5 6 6 6 5 6 6 5 6 6 5 5 5 4 4 4 5 5 6
11 7 9 7 8 8 8 9 9 9 8 9 8 7 7 9 10 11 9 7 6 6 6 5 4 5 6 6 6 7 6 5 6 6 7 6 5 6 7 7 7 7 5 5 5 4 4 4 4 4 4 4 5 4
11 9 7 5 6 6 7 7 7 8 8 9 8 8 9 10 10 9 6 6 6 5 4 4 4 5 6 6 6 6 5 5 5 5 5 5 5 5 5 6 7 6 5 4 4 4 4 4 4 4 4 4 4 4
7 6 8 7 7 6 8 8 8 8 8 7 7 9 9 9 10 7 6 4 4 3 4 4 4 5 5 5 5 5 5 5 5 5 5 5 6 5 5 4 4 4 4 3 4 4 4 4 4 4 4 4 4 3
8 6 6 7 7 7 7 8 8 7 6 7 8 8 8 6 5 6 6 5 4 4 5 5 6 5 5 5 5 5 5 6 6 7 7 7 7 6 5 5 5 5 5 5 5 4 4 3 4 4 4 4 5 4
7 5 7 7 7 8 7 6 7 5 5 6 6 6 6 5 5 5 5 5 5 5 4 5 6 6 7 6 7 6 5 5 5 5 6 7 6 5 5 5 5 5 5 5 5 4 5 5 5 5 5 5 6 5
5 5 6 7 7 6 5 5 5 4 5 5 5 5 6 6 6 5 5 5 5 5 5 5 6 6 7 7 7 7 7 6 5 5 5 5 5 5 5 5 4 4 5 5 5 5 5 5 5 5 5 5 5 6
6 6 7 8 8 5 5 6 6 6 6 6 6 6 6 6 8 6 5 5 5 5 5 5 6 6 5 5 5 5 5 5 5 5 5 5 5 5 5 5 5 4 4 4 4 5 4 5 6 6 5 5 6 6
6 6 6 6 7 7 6 6 7 7 6 7 6 6 6 6 7 5 4 3 4 4 5 5 5 5 5 4 4 4 5 5 6 7 7 6 7 7 6 6 5 5 5 5 5 5 5 5 5 5 5 6 6 7